COSMOS 798

Satellite information

Favourite Embed

Satellite Type and Status

PAYLOADIN ORBIT

Key statistics

Satellite COSMOS 798 at a glance.

Uptime

18220

Days in orbit

Revolutions

≈ 12.4

Per day

Orbit

LEO

Low Earth Orbit

Inclination

74.1

Latest

Satellite identification and parameters

Extended collection of information and parameters for COSMOS 798.

Object identification

Identified? True

Debris? False

Object name: COSMOS 798

International designator: 1976-008H

Object number (NORAD): 8614

Object ID (CCSDS): 8614

Country: COMMONWEALTH OF INDEPENDENT STATES (CIS)

Current information (Y/N): Y

RCS size: MEDIUM

Orbital parameters

Period: 116.339 minutes

Inclination: 74.0562 deg

SMA: 7894.263 km

Apoapsis: 1553.258 km

Periapsis: 1478.999 km

RAAN: 73.7549 deg

Eccentricy: 0.00470339

Argument of periapsis: 70.4026 deg

Mean anomaly: 102.9274 deg

Mean motion: 12.37756873 rev/day

Mean motion (dot): -0.00000032 rev/day2

B* drag term: -0.0001324961 1/REarth

Two-line elements (TLE)

Creation date: Dec. 16, 2025, 2:19 a.m.

Reference frame: TEME

Reference center: EARTH

Epoch: Dec. 15, 2025, 11:49 p.m. UTC

TLE line 0: 0 COSMOS 798

TLE line 1: 1 08614U 76008H 25349.99251324 -.00000032 00000-0 -13250-3 0 9999

TLE line 2: 2 08614 74.0562 73.7549 0047034 70.4026 102.9274 12.37756873253911

Live tracking on map

Real-time ground track for satellite COSMOS 798.

In-orbit conjunctions

A list of the most updated potential collisions computed for object COSMOS 798.

Target Orbit TCA Probability of collision Miss distance Type
THORAD DELTA 1 DEB SSO 2025-06-23 00:37:20 0.0005308198 43.0 (m) DEBRIS

Associated space launch

Military communications satellites

COSMOS 798 was lifted into orbit during the mission ‘Kosmos-3M | Strela-1M 105-112’, on board a Kosmos-3M space rocket.

The launch took place on Jan. 28, 1976, 10:39 a.m. from 132/1 (132L).

For more information about the launch, click the button.

Launch to space Kosmos-3M | Strela-1M 105-112
Kosmos-3M | Strela-1M 105-112

Agency: N/A

Status: Launch Successful

Launch date: Jan. 28, 1976, 10:39 a.m. UTC

Rocket: Kosmos-3M

Launch pad: 132/1 (132L)

Location: Plesetsk Cosmodrome, Russian Federation

...

Latest news about this satellite

There are no fresh news available about this satellite. Check back as we update our databases every day.


Newsletter sign-up

Weekly statistics, charts and insights to help you stay on top of the space industry.